Wind_Speed
27 26 25 24 23 23 23 23 23 23 23 23 24 24 24 25 25 25 25 25 25 25 26 27 27 28 30 32 33 34 35 35 35 35 36 37 38 37 36 35 33 32 31 29 27 26 26 28 27 25 23 22 20 19 18 17 16 15 14 12 11 10 8 7 6 5 5 5 5
27 26 25 24 24 24 24 24 23 23 24 24 24 24 24 24 24 25 25 25 25 26 26 27 28 29 31 32 33 34 34 34 35 35 35 36 37 37 36 35 33 30 27 25 24 23 25 27 26 25 24 23 22 21 20 18 18 17 16 15 13 12 10 8 6 5 4 3 3
26 26 26 25 25 25 25 24 24 25 25 25 24 23 24 24 24 25 25 26 27 27 27 28 29 30 31 33 33 33 33 33 34 34 35 35 36 36 35 34 33 30 27 24 22 21 22 23 23 22 23 23 22 22 21 20 19 19 18 16 15 14 12 9 7 5 3 2 2
26 26 26 26 26 26 25 24 25 26 26 25 24 24 24 24 25 25 26 27 28 28 28 28 30 31 31 32 32 33 33 33 33 34 35 35 35 35 34 33 32 30 28 25 22 20 19 20 19 20 22 22 22 21 21 20 19 18 17 16 15 14 12 10 8 5 3 2 1
27 27 26 26 26 26 25 25 25 26 26 25 24 24 24 25 26 26 27 28 29 29 29 30 31 31 31 32 32 33 34 34 33 33 34 34 34 35 34 33 32 30 29 27 26 23 20 18 16 17 20 21 20 19 19 18 18 17 16 14 14 13 12 10 8 6 4 3 2
27 27 26 26 26 26 25 25 26 26 26 25 25 26 26 26 27 28 30 30 31 31 31 32 31 31 31 32 32 33 34 34 34 33 34 34 34 34 33 32 31 31 30 29 30 28 24 19 14 13 17 19 18 17 16 16 16 16 15 14 13 12 11 10 9 6 4 3 3
26 26 26 26 26 25 25 26 26 26 26 25 26 27 28 29 30 31 31 31 31 31 31 30 30 30 30 32 32 33 34 34 35 34 34 34 34 33 32 31 30 31 31 31 32 32 29 23 17 14 15 17 18 17 15 14 15 15 14 14 12 11 10 9 8 6 4 2 2
25 25 26 26 25 26 27 27 27 27 27 26 27 28 29 30 31 32 32 32 31 30 30 30 30 31 31 32 33 33 34 35 35 35 34 33 33 33 31 30 29 30 32 32 32 32 31 27 21 15 13 15 17 16 15 14 13 13 13 12 11 10 9 8 7 5 3 1 1
26 26 26 26 26 27 27 28 28 27 27 27 28 29 30 31 31 32 31 31 31 31 31 31 31 32 32 33 33 33 33 33 33 33 33 33 33 32 31 29 28 29 30 31 32 33 32 30 26 21 16 15 15 16 14 13 12 11 11 11 10 10 9 7 6 4 3 3 3
26 26 27 26 27 28 28 28 28 27 27 28 29 30 31 31 31 31 31 31 32 32 32 32 32 32 32 32 32 32 31 31 31 32 32 33 33 32 31 29 27 26 26 28 31 34 35 33 29 24 20 17 16 15 14 13 12 11 11 10 10 10 10 9 8 7 7 6 6
27 27 27 27 28 28 28 28 28 27 27 28 30 31 32 32 32 32 32 32 33 33 33 33 32 31 31 31 31 31 31 31 32 32 33 33 32 31 29 26 23 20 20 21 26 32 35 34 30 25 21 17 16 15 15 14 13 12 11 11 10 10 10 10 10 10 9 9 8
27 27 27 27 28 28 28 28 28 28 28 29 30 31 32 32 33 33 34 34 34 34 33 32 31 30 30 29 29 30 31 32 32 33 33 32 30 28 26 22 17 13 12 13 18 24 29 30 28 24 20 17 16 15 15 14 13 12 12 11 10 10 10 10 10 11 11 10 9
27 27 27 28 28 28 28 28 28 28 29 30 31 32 32 34 34 34 34 35 34 33 32 31 30 29 29 28 29 30 31 32 33 32 31 28 26 23 20 17 14 11 9 9 9 13 19 22 23 21 19 16 15 15 14 14 13 12 12 11 10 10 11 11 11 11 10 10 8
27 27 27 28 28 28 28 28 28 29 30 32 33 33 33 34 34 34 34 34 34 33 32 31 30 29 28 28 28 30 31 32 32 30 27 23 18 15 14 14 13 12 11 10 7 7 11 15 17 16 15 14 13 13 12 12 12 12 12 12 11 11 12 12 11 10 9 9 8
27 27 28 28 29 29 28 29 28 29 31 32 34 34 34 34 34 34 34 34 33 33 33 31 30 29 28 27 27 27 29 30 29 26 22 17 10 7 8 10 11 11 11 11 9 7 7 9 10 10 9 10 10 10 11 11 11 12 12 12 11 11 11 11 11 10 9 8 7
27 28 28 29 29 29 29 29 29 29 32 34 34 35 35 35 35 34 33 33 34 34 32 30 29 28 27 25 23 24 26 27 25 21 17 15 11 7 5 7 8 10 11 11 10 9 9 8 7 6 6 7 8 9 10 10 11 11 11 11 11 11 11 10 10 10 9 7 6
28 29 29 29 30 30 30 30 29 31 33 35 35 36 36 35 35 34 32 32 33 33 32 30 29 27 26 24 22 22 24 25 24 17 11 14 14 12 8 6 7 9 10 11 10 10 9 9 8 7 7 8 9 10 11 11 11 11 11 11 11 10 10 10 10 9 8 7 6
29 29 30 30 31 31 31 30 30 32 34 36 36 37 37 36 35 34 33 32 32 32 32 30 29 28 27 26 24 23 24 25 26 23 15 6 7 8 7 5 4 7 9 9 9 9 9 9 9 8 9 10 11 11 11 12 12 11 11 11 11 10 10 10 9 9 8 7 6
29 30 31 31 32 32 31 30 31 33 35 36 37 37 37 36 35 34 34 33 32 32 31 30 30 30 29 28 27 25 24 25 27 27 24 19 14 11 9 7 8 8 9 8 7 7 8 8 9 9 10 11 11 12 12 12 12 11 11 11 11 11 10 10 10 9 9 8 7
29 30 31 31 31 31 31 30 31 33 35 36 37 38 37 36 34 34 34 33 31 31 31 30 30 30 30 29 28 27 26 26 26 27 27 26 23 21 19 18 18 17 16 14 13 13 12 12 12 12 12 12 12 12 12 12 12 13 13 12 12 12 11 11 10 10 10 9 8
29 30 31 30 30 30 30 30 31 33 35 36 37 38 37 35 34 33 33 32 31 31 31 30 30 31 31 30 30 28 27 27 27 26 26 27 27 26 25 24 24 23 22 21 20 20 19 19 18 17 17 16 16 16 15 14 14 14 14 14 14 14 13 13 12 12 12 11 11
29 30 30 30 30 30 29 29 31 33 34 35 36 37 37 35 33 32 31 31 31 32 31 30 31 31 31 31 31 30 30 29 28 26 25 26 26 27 28 28 28 27 26 25 24 24 23 23 23 22 22 22 21 20 19 18 17 16 16 16 16 16 15 15 15 15 14 14 14
29 29 29 29 30 29 28 29 31 33 34 35 36 36 36 35 33 31 30 30 30 30 30 30 30 31 32 32 33 33 33 32 31 29 27 25 24 25 27 29 29 29 28 28 27 26 26 26 26 25 25 25 24 23 22 21 20 19 19 19 18 18 17 16 16 16 16 15 15
28 29 29 30 29 29 29 29 31 32 33 33 34 35 35 35 33 31 29 29 28 29 29 29 29 30 32 33 34 34 35 35 35 33 31 27 24 22 23 26 28 28 28 28 27 27 27 27 27 26 26 25 25 25 24 23 22 21 21 20 19 19 18 17 16 16 15 15 15
29 29 30 30 30 29 29 30 31 32 32 32 33 34 34 34 33 31 29 27 27 27 27 27 28 29 31 33 34 34 35 35 35 35 34 32 28 23 21 22 23 25 25 25 25 25 26 26 26 25 24 24 23 23 22 21 21 20 19 19 18 17 17 17 17 17 16 15 14
29 30 31 31 30 29 29 30 31 32 32 32 32 33 33 34 33 31 29 27 26 25 26 26 26 26 28 30 32 33 34 34 34 35 35 34 32 29 25 21 21 21 22 22 22 23 23 23 23 23 22 22 21 20 20 19 19 18 17 17 16 15 15 16 16 17 17 16 15
30 30 30 30 30 29 29 30 31 31 31 31 31 31 32 32 32 31 29 26 24 24 24 24 24 24 25 28 30 31 32 32 33 33 33 33 33 32 29 26 23 21 20 20 20 21 21 21 21 21 20 19 19 18 18 17 17 16 16 15 15 14 15 15 15 15 15 15 14
30 30 30 29 29 29 29 30 31 31 31 31 31 30 31 31 32 31 29 26 24 22 22 22 22 23 25 26 28 29 30 31 31 32 32 32 31 31 30 29 26 24 22 19 18 18 18 19 19 18 18 17 17 16 16 16 15 15 15 15 14 14 14 14 14 13 13 13 13
30 29 29 29 29 28 29 30 30 30 30 30 30 30 30 30 31 31 30 28 24 21 20 20 20 22 23 24 26 28 29 30 30 30 30 30 29 28 27 26 25 24 23 20 18 16 16 17 17 16 15 15 14 14 14 14 14 14 14 14 14 14 14 14 13 12 12 11 11
30 29 29 29 29 28 29 29 29 30 30 30 30 30 29 30 31 31 31 29 26 21 18 17 18 20 21 23 25 26 27 28 28 29 28 27 25 24 22 21 21 21 21 20 18 15 15 15 15 14 13 12 12 12 12 12 13 13 13 13 13 14 14 14 13 13 12 11 11
30 29 29 29 29 29 29 29 29 29 30 30 30 30 29 29 30 30 31 30 28 23 17 14 16 18 19 21 23 24 25 26 26 26 26 24 22 20 19 18 18 18 19 19 17 14 13 13 13 13 12 11 11 11 12 12 12 12 13 12 12 12 13 13 13 12 12 11 11
30 29 29 29 29 29 29 29 29 29 30 30 30 29 28 28 29 30 30 30 30 25 18 13 14 16 18 19 20 22 23 24 24 24 23 22 20 19 17 17 16 17 18 18 16 13 11 11 12 12 11 10 10 11 12 12 13 13 13 13 13 12 12 12 12 12 12 11 12
30 29 29 29 29 29 29 29 29 29 29 29 29 28 28 27 28 29 30 30 30 27 19 12 13 15 16 17 18 19 20 21 22 22 22 21 20 18 17 16 16 17 17 17 16 12 9 10 11 11 10 10 11 12 12 13 14 14 14 14 14 13 13 13 12 12 12 12 12
31 30 29 29 29 29 29 29 29 29 28 28 28 28 28 28 28 28 29 29 30 28 21 13 12 13 14 15 16 17 18 19 20 20 20 20 20 19 18 17 17 18 19 19 18 11 6 10 11 10 10 10 11 12 13 13 14 15 15 15 15 14 14 13 13 13 12 12 12
31 30 29 29 29 29 28 29 28 28 28 28 27 28 28 28 27 27 27 27 28 28 24 15 12 12 14 15 16 17 17 18 18 18 18 19 19 20 20 19 19 20 21 22 19 9 5 11 12 10 10 10 11 12 12 13 14 14 14 14 14 14 14 14 14 14 13 12 12
31 30 29 29 28 28 28 28 28 28 28 28 27 27 27 27 26 26 25 25 28 29 26 19 15 14 15 16 17 18 18 18 18 17 17 17 18 19 20 21 22 22 24 25 17 5 10 13 13 11 11 11 11 11 12 12 13 13 13 13 13 13 13 14 15 15 15 14 13
31 30 30 29 28 27 27 27 28 28 28 28 28 27 27 26 26 25 24 24 27 28 27 23 19 17 17 17 18 18 18 18 17 16 15 15 16 18 20 22 23 25 26 25 15 11 16 15 13 12 11 11 11 11 11 11 11 11 11 11 11 11 12 13 14 15 16 15 14
31 30 30 29 27 27 26 27 27 28 28 28 28 27 27 26 25 24 23 23 25 26 26 24 22 21 19 17 18 19 18 17 16 15 14 14 14 16 18 21 23 25 26 24 16 15 16 14 12 10 10 10 10 10 9 10 10 10 10 10 10 9 10 11 12 14 15 15 14
30 30 30 29 27 26 26 26 27 28 28 27 27 27 26 25 24 23 22 22 23 24 23 23 22 22 20 18 18 19 18 16 14 13 12 12 13 14 16 19 21 23 24 22 16 14 14 12 10 9 7 7 7 7 8 8 9 9 9 9 9 8 8 9 10 11 12 13 13
29 29 29 28 26 25 25 26 27 28 28 27 26 26 25 24 23 22 22 22 23 23 22 21 21 21 20 18 18 19 18 15 13 11 11 11 12 13 15 17 20 21 22 21 17 13 11 11 10 9 7 6 5 6 7 7 8 8 8 8 8 8 8 8 8 8 9 9 10
29 29 29 28 26 24 24 25 27 28 28 27 26 25 25 24 24 23 23 22 22 22 22 21 21 21 20 19 19 18 17 15 13 11 10 11 12 13 15 17 19 20 21 20 18 13 10 10 10 10 9 7 5 5 6 6 7 7 7 7 6 6 7 7 7 7 7 8 8
Wind_Direction
344 344 343 341 339 337 334 331 329 328 327 325 323 320 319 317 315 313 312 311 310 308 307 306 305 304 304 304 305 305 305 305 304 304 304 305 305 305 305 304 298 291 285 282 279 269 252 234 218 206 198 193 188 183 178 176 174 172 169 167 165 166 168 172 177 185 193 200 202
345 345 344 342 340 338 335 333 330 329 327 326 323 321 319 317 316 314 312 311 310 309 307 306 305 304 304 304 304 304 303 303 303 303 303 304 304 304 304 302 297 290 282 278 275 265 250 234 219 205 194 188 181 175 171 170 170 168 164 161 159 159 159 157 158 166 178 192 203
346 345 344 342 340 338 336 333 331 329 328 326 323 321 320 318 316 314 312 311 309 308 307 305 304 304 303 303 302 302 302 301 301 302 302 302 302 302 301 299 297 290 281 272 268 258 244 229 214 196 183 177 171 167 164 165 168 167 163 160 159 160 158 153 151 155 165 176 202
345 344 343 341 339 338 336 334 332 330 328 326 324 322 320 318 316 314 312 311 309 308 306 305 304 303 302 301 301 300 300 300 300 300 300 299 299 299 298 296 294 290 282 270 264 259 249 233 209 186 171 166 164 161 159 160 163 162 158 154 154 155 153 147 143 139 132 117 132
344 343 341 340 339 337 336 335 332 330 328 326 324 322 320 318 317 315 313 312 310 308 306 305 304 303 302 301 301 301 300 300 299 298 298 297 297 297 296 293 290 287 281 271 264 261 256 241 213 181 163 159 157 157 157 157 158 157 153 147 145 144 142 136 132 126 113 91 71
342 341 341 340 339 338 336 335 333 330 328 326 323 322 320 319 317 316 314 312 310 308 307 306 305 304 303 303 302 302 301 300 299 297 296 295 295 295 294 290 286 283 279 272 263 260 258 252 230 186 161 155 153 153 154 156 157 156 151 142 137 135 134 131 131 129 118 91 56
341 341 340 339 339 338 337 335 332 330 328 326 324 323 321 319 318 316 314 312 310 309 308 308 306 305 304 303 303 302 301 299 298 296 294 293 293 293 292 289 283 278 275 272 264 258 256 254 243 212 177 154 150 149 149 151 152 150 146 141 139 137 133 131 132 130 123 97 41
342 341 341 339 338 337 336 335 333 331 330 328 326 323 321 319 318 317 314 313 311 310 308 307 305 304 303 302 302 301 300 299 297 295 294 292 292 291 290 288 281 275 272 270 263 256 252 251 247 229 195 169 157 153 152 152 153 152 150 147 150 150 147 142 141 139 135 122 357
342 341 340 339 338 337 336 335 334 332 330 328 326 324 323 321 320 318 316 314 312 310 308 306 305 304 303 302 301 301 300 299 297 295 293 291 290 289 287 285 280 276 272 267 257 250 247 247 244 235 216 189 171 163 161 161 161 160 160 159 161 167 171 170 169 175 195 228 266
342 341 340 339 338 337 336 335 334 332 330 328 327 326 324 323 322 320 317 315 313 311 308 307 305 304 303 302 302 301 301 299 297 295 292 290 288 286 283 281 278 277 275 266 252 245 243 243 241 234 221 202 185 173 169 171 172 171 170 171 172 175 180 187 192 203 217 231 245
342 341 340 339 338 337 337 336 335 333 331 329 328 327 326 325 324 323 320 318 315 312 310 308 306 305 303 303 302 302 301 301 298 296 293 289 286 283 279 275 275 277 277 268 252 243 239 238 235 228 216 201 187 177 173 175 176 175 174 175 175 175 177 183 192 202 210 218 225
341 340 340 339 339 338 338 337 336 335 333 331 330 328 328 327 327 326 324 321 318 315 312 311 308 306 305 303 303 303 303 302 300 297 292 287 283 278 272 266 264 269 274 267 249 238 233 229 224 216 205 193 182 176 174 176 176 176 175 174 174 173 173 175 184 192 197 201 204
341 341 340 340 340 340 339 339 338 336 334 334 332 331 331 330 331 330 327 324 321 318 316 314 311 309 307 305 305 304 304 304 302 297 290 283 277 269 259 250 245 250 262 264 244 225 216 212 208 201 191 179 173 174 177 181 180 179 178 177 176 176 175 174 176 179 182 184 183
341 341 341 341 341 341 341 340 340 338 336 335 334 334 333 333 334 333 331 328 325 323 322 319 317 314 312 309 308 308 308 308 305 297 287 276 267 252 238 230 229 236 248 258 250 216 195 191 190 187 180 171 168 173 181 186 184 181 182 185 182 177 173 170 170 169 167 165 165
343 343 343 342 343 343 343 342 341 339 337 336 336 336 336 337 337 337 335 333 332 331 330 327 324 322 319 316 315 316 317 317 312 300 283 264 245 219 205 206 214 225 236 245 246 230 203 191 187 183 178 173 173 177 183 186 183 180 179 179 176 172 169 165 164 162 160 156 157
344 344 344 344 345 344 344 344 342 340 339 338 338 339 339 340 341 341 340 339 339 340 339 337 335 333 332 330 330 332 334 335 328 308 277 246 224 200 180 183 197 210 220 227 229 227 222 216 210 203 194 186 180 177 176 174 172 169 169 169 169 166 163 161 160 158 156 155 161
345 345 346 347 347 346 346 345 344 342 341 340 340 341 342 343 344 344 345 345 345 346 347 347 348 348 348 349 351 353 355 356 353 339 295 247 236 238 242 230 205 197 198 205 207 209 210 212 212 207 199 187 177 170 165 161 159 158 159 161 161 160 159 158 157 153 151 153 163
345 345 346 348 348 348 347 346 345 344 343 343 343 344 345 346 347 349 350 351 350 351 352 355 358 359 1 3 6 9 10 12 14 14 9 334 273 267 270 257 202 173 169 176 179 183 185 186 188 185 179 173 167 160 155 152 152 154 156 155 154 155 155 155 152 149 149 154 163
345 345 346 348 348 348 347 346 345 345 345 345 346 347 348 349 351 354 356 356 355 356 358 0 3 6 9 11 13 16 18 20 23 27 31 36 41 44 48 62 83 99 110 119 129 137 142 144 146 147 145 145 148 147 145 142 142 144 146 145 144 146 147 146 145 145 147 150 155
345 345 346 347 347 348 347 347 346 346 346 347 349 349 350 351 354 357 360 360 359 0 3 6 8 10 12 15 17 19 22 25 27 30 35 41 46 51 55 60 66 72 78 81 81 82 85 90 97 102 105 107 112 118 121 121 121 124 127 129 129 131 132 134 137 139 139 138 145
346 345 345 346 346 347 347 347 346 347 348 349 350 351 352 352 355 359 3 4 3 5 7 10 12 13 15 17 19 21 24 27 29 32 36 41 45 49 52 56 59 63 67 70 71 72 73 74 75 77 78 80 84 88 92 95 98 102 106 110 112 115 118 123 127 130 130 129 132
346 345 345 345 346 346 346 346 346 347 348 349 351 352 353 353 354 359 4 8 8 8 10 12 15 17 19 20 22 24 27 30 31 33 37 41 46 49 52 54 55 57 59 62 65 67 69 70 70 70 70 71 72 74 75 76 78 81 85 90 95 100 105 111 116 119 120 119 118
345 345 345 345 345 345 345 345 347 348 349 349 350 352 353 353 354 358 4 9 10 10 11 13 16 19 21 23 25 27 29 31 33 34 36 39 45 50 53 54 54 54 55 56 59 63 66 67 68 68 69 69 69 69 68 68 68 68 70 73 77 82 88 95 101 106 108 109 107
344 344 344 345 345 346 346 346 347 348 349 348 349 351 353 353 354 356 0 7 10 11 12 13 16 19 22 25 26 28 30 31 32 32 34 36 40 46 52 55 56 55 54 54 55 58 61 64 65 66 67 68 68 68 67 66 64 62 61 61 63 66 70 75 82 87 92 94 95
344 344 344 345 346 346 346 347 348 348 348 348 348 350 352 353 353 354 357 2 8 11 12 13 15 18 22 24 26 27 28 29 30 30 31 32 33 38 45 52 56 57 56 55 54 54 56 59 61 63 65 66 66 66 65 64 62 60 58 56 56 57 59 62 66 70 74 77 79
345 344 345 345 346 347 347 348 348 348 348 348 348 349 351 352 353 352 354 358 4 9 12 13 13 16 19 22 24 25 26 27 28 29 29 29 30 31 34 41 50 55 56 55 55 56 56 56 58 60 62 64 65 65 64 62 61 59 57 55 54 53 53 54 57 60 63 65 67
346 345 345 345 346 347 348 348 349 349 349 348 348 348 349 352 353 352 352 355 0 6 11 13 13 14 17 21 24 25 26 26 27 28 28 28 28 29 29 31 36 44 50 53 55 57 58 58 57 58 60 61 63 63 63 62 60 58 56 54 52 51 50 50 52 54 56 58 61
347 346 345 346 347 348 348 349 349 350 349 349 349 348 349 351 353 353 352 352 356 3 8 12 14 16 19 21 23 25 26 26 26 27 27 28 29 29 29 29 29 31 37 45 53 58 60 61 60 59 59 61 62 62 62 61 59 56 53 50 47 45 45 47 48 50 51 52 54
348 347 347 347 348 349 349 349 350 350 350 350 350 350 350 352 353 354 353 350 352 357 4 11 16 19 20 21 23 25 26 27 27 27 27 28 29 30 31 30 28 26 27 32 42 54 61 63 63 62 60 62 63 64 63 62 59 55 51 45 41 38 39 40 42 44 46 48 50
349 349 348 349 349 349 349 349 349 349 350 351 351 351 351 352 354 354 353 350 348 351 359 11 19 23 24 24 25 25 26 27 28 28 28 29 29 31 32 31 29 25 21 23 29 41 54 62 65 63 62 65 68 70 69 67 63 58 52 45 39 35 35 36 37 40 43 46 49
350 350 349 350 350 350 349 348 349 349 351 352 352 352 352 352 353 354 353 352 349 347 354 12 23 27 27 27 27 27 27 28 28 28 28 28 28 29 30 30 28 22 17 16 19 29 45 60 67 67 66 69 72 75 75 73 70 64 58 51 44 40 38 38 39 41 43 47 50
350 350 350 350 350 349 348 348 349 350 351 352 353 353 352 352 352 353 354 354 351 348 353 14 28 29 28 28 27 27 27 27 27 27 26 26 25 24 25 26 25 19 12 7 8 19 42 64 70 71 70 73 76 79 79 77 74 69 65 60 55 51 48 47 46 46 47 50 54
349 349 350 350 350 349 348 348 349 350 351 352 352 353 352 352 353 354 355 355 352 350 355 18 30 30 27 25 24 24 24 24 24 24 24 23 21 20 19 18 17 12 5 358 356 6 44 75 78 76 76 81 83 83 82 79 75 72 69 66 64 63 61 59 56 54 53 55 57
348 348 349 349 349 349 349 349 349 350 350 351 352 352 352 352 353 354 354 354 352 353 358 16 31 32 27 23 21 19 19 19 20 21 20 19 18 16 15 12 9 3 356 349 344 350 48 88 86 83 85 89 90 88 84 80 77 75 74 74 73 72 71 69 65 61 57 56 58
347 346 347 347 348 349 349 349 349 350 351 351 351 351 351 352 352 353 353 352 353 354 358 7 23 28 23 19 17 15 13 13 14 16 16 15 14 13 12 10 6 0 353 346 339 343 91 98 91 88 90 94 93 90 86 83 81 80 80 80 79 78 77 74 70 65 59 54 53
346 345 345 346 347 348 349 350 350 350 351 350 350 350 350 350 351 353 353 353 354 355 356 358 9 18 17 14 11 9 8 7 8 10 11 12 11 10 11 10 6 2 356 350 348 31 113 99 91 89 92 94 92 90 88 86 86 86 87 86 83 80 77 74 71 66 60 52 46
346 345 345 345 346 347 349 350 351 351 351 350 349 348 348 349 350 352 353 354 355 355 355 355 358 4 7 8 6 6 5 4 4 5 8 10 9 9 10 11 9 5 1 0 18 80 104 92 87 87 89 89 88 87 87 88 90 90 90 86 82 77 72 68 65 63 59 53 45
345 346 345 345 345 347 349 351 352 351 350 349 348 348 348 348 349 350 352 354 354 354 354 354 354 356 359 1 2 4 6 5 4 4 7 11 10 9 10 13 13 9 7 11 38 76 89 82 81 81 81 80 82 84 85 88 90 91 87 81 74 68 62 58 55 54 54 51 45
345 346 346 345 345 347 349 351 352 351 350 348 347 347 348 347 347 349 351 353 354 354 353 354 354 355 357 358 0 4 7 9 9 9 12 13 12 10 11 16 17 14 12 14 33 63 76 73 70 66 64 66 76 82 86 88 90 89 84 77 68 59 51 45 42 42 44 45 43
344 345 346 345 346 348 350 351 352 351 350 348 347 346 346 346 346 348 350 352 354 354 353 353 354 356 359 359 1 5 9 14 17 20 21 20 17 15 16 20 21 19 14 12 20 43 67 68 62 54 51 54 73 88 93 93 92 89 83 74 64 54 45 37 32 30 31 33 36
345 346 346 346 347 348 350 352 351 351 350 349 347 346 346 346 348 349 351 352 353 353 353 351 353 356 360 2 4 7 12 20 27 30 30 28 24 22 21 23 23 20 16 12 15 29 56 69 63 57 55 59 76 96 106 107 103 96 87 77 65 53 43 34 28 26 27 30 35
Height
801 800 799 797 795 794 792 790 789 787 785 784 782 779 777 775 773 771 769 767 765 763 760 758 755 753 750 749 747 745 743 741 740 738 736 734 733 731 730 729 728 727 725 723 722 721 720 720 719 717 717 717 718 719 719 720 721 722 724 724 726 727 728 729 729 730 731 732 733
801 799 798 797 796 794 792 790 788 787 785 784 782 779 777 775 773 770 768 766 764 762 760 757 754 752 750 748 746 744 742 740 739 737 735 733 731 730 729 728 727 726 724 723 722 721 721 721 718 716 715 715 716 717 717 718 719 720 722 723 724 725 726 727 728 729 730 731 732
801 800 798 797 795 794 792 790 788 786 785 783 781 779 777 775 773 770 768 766 764 762 759 757 754 751 749 747 744 743 741 739 737 736 734 732 730 729 727 726 725 725 724 723 722 721 722 722 718 715 713 714 714 714 715 716 718 719 719 721 722 723 724 725 727 728 729 730 731
802 800 799 797 796 794 793 791 789 787 784 783 781 779 777 775 773 770 768 765 763 761 759 756 753 750 748 746 744 741 740 738 736 735 733 731 729 728 726 725 724 724 723 723 722 722 722 721 719 714 712 712 713 713 714 715 716 717 718 719 720 721 722 724 725 727 728 729 730
802 801 799 798 796 794 793 791 789 787 785 783 780 779 776 774 772 770 767 764 762 760 757 755 753 750 747 745 743 740 739 737 735 734 732 730 728 726 725 724 723 722 722 722 722 722 722 721 720 715 710 710 711 713 714 714 715 716 718 719 719 720 721 722 724 725 727 729 730
802 801 799 798 796 794 793 791 789 787 785 783 780 778 776 774 772 769 767 764 761 759 756 754 751 749 746 744 742 739 737 735 734 732 730 728 726 724 723 722 721 721 720 721 721 721 721 722 722 716 710 709 710 712 713 714 714 715 717 718 719 719 720 720 722 724 726 728 729
803 801 799 798 796 794 793 791 789 786 784 782 780 778 776 773 771 768 766 763 760 757 755 753 750 748 745 743 740 738 736 734 731 729 728 726 724 723 721 720 719 719 719 719 719 720 720 720 720 716 711 709 709 710 712 713 714 715 716 717 718 719 719 720 721 723 724 727 729
804 802 800 798 796 794 792 790 788 786 784 782 779 777 775 772 770 767 764 762 759 756 754 751 749 746 744 742 739 737 734 732 729 728 726 724 723 721 720 719 718 718 718 717 718 719 719 719 719 717 713 709 709 709 710 712 713 714 715 716 717 718 719 719 720 722 724 726 728
803 801 799 798 796 794 792 790 788 786 784 781 779 777 774 771 769 766 763 760 758 755 753 750 747 745 743 740 738 735 733 730 728 726 724 722 721 719 718 717 717 717 716 716 716 717 718 719 718 717 715 711 709 708 709 710 712 714 714 715 716 717 718 719 719 721 723 725 727
803 801 799 797 795 794 792 789 787 785 783 780 778 776 773 770 768 765 762 759 756 754 751 749 746 743 741 738 736 734 731 729 727 724 722 720 719 718 717 716 715 715 714 714 715 716 717 717 718 717 715 712 709 707 708 709 711 713 714 715 715 716 717 718 719 720 722 724 726
804 802 799 798 795 793 791 789 787 784 782 780 777 774 772 769 767 764 761 758 755 752 749 747 744 742 739 737 734 732 729 727 725 722 720 719 717 716 715 714 714 714 713 712 713 714 714 715 717 717 714 711 708 707 708 709 710 712 713 714 715 716 716 717 718 719 721 723 725
804 802 799 798 795 793 791 789 787 784 782 779 777 774 771 768 765 763 760 757 754 751 748 745 743 740 738 735 733 730 728 725 723 720 718 716 715 714 713 713 713 713 713 713 712 712 713 714 716 715 713 709 707 707 708 709 710 711 713 714 715 715 716 717 718 719 721 722 723
804 802 799 797 795 793 791 789 787 784 782 779 776 773 770 767 764 762 759 756 753 749 746 744 741 739 736 734 731 729 726 723 720 718 716 714 713 713 712 712 712 713 714 714 713 712 713 714 715 714 711 709 707 707 708 709 710 711 713 714 715 715 716 717 718 719 720 721 722
804 802 800 798 795 793 791 789 787 784 781 779 776 773 770 767 764 761 758 755 752 749 745 742 739 737 735 733 730 728 724 721 718 716 714 713 712 711 711 711 711 713 714 714 713 713 713 714 714 712 710 708 708 708 709 710 711 712 713 714 715 715 716 716 718 719 719 720 721
804 802 800 798 795 793 791 789 787 784 781 779 775 773 769 766 764 761 758 754 751 748 745 742 739 736 734 732 729 727 724 720 716 714 712 712 712 711 710 710 711 713 714 714 714 714 714 714 713 712 710 709 709 709 710 711 711 712 713 714 714 715 716 716 717 718 719 719 721
804 802 800 798 795 794 791 789 787 784 782 779 776 773 769 766 764 760 758 754 751 748 745 742 739 736 734 731 729 726 723 719 715 712 711 711 711 711 711 711 711 712 713 714 714 714 714 714 713 712 711 711 710 710 711 711 712 712 713 714 715 715 716 716 717 717 718 719 721
804 802 800 798 796 794 791 789 787 785 782 779 776 773 770 767 764 761 758 755 752 749 746 743 739 737 734 731 729 726 723 719 715 712 711 711 712 712 712 712 712 712 713 713 714 714 714 714 714 714 713 712 712 711 711 711 712 713 713 714 715 716 716 717 717 716 717 719 721
804 802 800 798 796 794 791 790 788 785 783 779 776 773 770 767 765 762 759 756 753 750 747 743 740 738 735 732 729 727 724 721 717 714 713 712 712 712 712 712 712 712 712 713 713 714 714 714 714 714 714 713 713 712 712 712 712 713 714 714 715 716 717 717 717 717 718 720 722
804 802 800 798 796 794 792 790 788 786 783 780 777 774 771 768 765 763 759 757 754 751 748 745 742 739 736 733 731 728 726 723 720 717 715 713 713 712 712 712 712 712 712 713 714 714 714 714 714 714 714 713 713 713 713 713 713 714 715 715 716 716 717 717 717 717 719 720 723
805 803 801 799 796 794 792 790 789 786 783 780 778 774 771 769 766 764 761 758 755 753 749 746 743 740 738 735 732 730 728 725 723 721 718 716 714 714 713 713 712 712 712 713 714 714 714 714 714 714 714 713 713 713 714 714 715 715 716 716 717 717 717 717 718 719 720 721 723
805 803 801 799 797 795 793 791 789 786 784 781 778 775 772 769 767 764 762 759 757 754 751 748 745 743 739 737 734 732 730 728 726 724 722 720 719 718 717 716 715 714 714 714 714 714 714 714 714 714 714 714 714 714 715 716 717 717 718 718 718 718 718 718 719 720 721 722 723
806 804 802 800 798 796 794 791 789 787 784 782 779 776 773 770 768 766 763 761 758 755 753 750 747 745 742 739 737 734 732 730 728 727 725 724 723 721 720 719 718 717 716 716 716 715 714 714 714 714 714 714 715 716 717 718 719 719 720 719 719 719 719 719 720 721 722 722 723
806 804 802 800 798 796 794 792 789 787 784 782 779 777 774 771 769 767 764 761 759 757 754 752 749 747 744 742 739 737 734 732 730 729 728 727 726 725 724 722 721 720 719 719 718 718 717 716 716 716 716 717 717 718 719 720 721 722 722 722 721 721 721 721 722 722 722 723 723
807 805 803 800 798 796 794 792 789 787 785 783 780 778 775 772 770 767 765 763 760 758 756 754 752 749 747 744 742 739 737 734 732 731 729 729 728 728 726 725 724 723 723 722 722 721 720 719 719 719 719 720 720 721 722 723 724 724 724 724 724 724 724 724 724 723 723 723 723
807 805 803 800 798 796 794 792 790 788 785 783 781 779 776 773 771 768 766 764 761 759 757 755 753 751 749 746 744 742 739 737 735 734 732 731 730 729 729 728 727 726 726 725 725 724 723 722 722 723 723 723 724 724 725 726 726 727 727 728 728 728 727 727 725 724 724 724 724
807 805 803 800 798 796 794 792 790 788 786 784 781 779 776 774 772 769 767 765 763 760 759 757 755 753 751 749 746 744 742 740 739 737 735 734 732 731 730 730 729 729 728 728 727 727 726 726 726 726 726 726 727 727 728 728 729 729 730 730 731 730 730 729 727 726 725 725 725
807 805 803 800 799 797 794 793 790 788 786 784 782 780 777 775 773 770 768 766 764 762 760 758 756 755 753 750 748 746 744 743 741 740 739 737 735 734 732 732 731 731 731 730 730 729 729 729 729 729 729 729 729 729 730 730 731 732 732 733 733 732 731 730 729 728 727 727 727
808 805 803 801 799 797 795 793 791 789 786 784 783 780 778 776 773 771 769 767 765 763 761 759 758 756 754 752 750 749 747 745 744 742 741 739 738 736 735 734 734 734 734 733 732 731 731 731 731 731 731 731 731 732 732 733 733 734 734 734 734 734 733 732 731 730 729 729 729
808 806 803 801 799 797 795 793 791 789 787 785 783 781 779 776 774 772 769 768 766 764 762 761 759 757 756 754 753 751 749 748 746 744 743 742 740 739 739 738 737 736 736 735 734 734 733 733 733 733 733 733 733 734 734 734 735 736 736 736 736 735 734 734 733 732 732 731 731
809 806 804 802 800 798 796 794 792 790 788 786 784 781 779 777 775 772 770 768 767 765 764 762 760 759 758 756 754 753 751 750 748 747 745 744 743 742 741 740 739 739 738 738 737 736 735 734 734 735 735 735 735 735 735 736 736 737 737 737 737 736 736 735 735 734 734 734 733
809 807 804 802 800 798 796 794 793 790 789 786 784 782 780 778 776 774 771 769 768 766 765 763 762 760 759 758 756 755 753 752 750 749 748 746 745 744 743 742 741 740 740 739 739 738 737 736 736 736 736 736 736 737 737 737 738 738 738 738 738 738 737 737 737 736 736 735 735
809 807 805 803 801 799 797 795 793 791 789 787 785 783 781 779 777 775 772 770 768 767 765 764 762 761 760 759 757 756 755 754 752 751 750 749 748 746 745 744 743 742 741 741 740 739 739 738 737 737 737 738 738 738 738 739 739 739 739 739 739 739 739 738 738 738 737 737 736
810 808 806 804 802 800 798 796 794 792 789 788 785 784 782 780 778 775 773 771 769 767 766 765 764 762 761 760 759 757 756 755 754 753 752 751 749 748 747 745 744 743 743 742 741 741 739 739 738 738 739 739 739 739 739 739 739 739 739 739 740 740 739 739 739 739 739 739 738
810 809 806 804 802 800 798 796 794 792 790 788 786 784 783 780 779 776 774 772 770 769 767 766 765 764 763 761 760 759 758 757 755 754 753 752 751 749 748 747 746 745 744 743 742 741 740 739 739 739 739 739 740 740 740 740 740 740 740 741 741 740 740 740 740 740 740 740 739
811 809 807 805 803 801 799 797 795 793 791 789 787 785 783 781 780 778 776 774 772 769 768 768 766 765 764 763 761 760 759 758 757 756 755 754 752 751 749 748 747 746 744 743 741 741 740 740 740 740 740 740 741 741 741 741 741 741 741 742 741 741 741 741 741 741 741 741 740
812 810 808 806 804 802 800 798 795 794 791 789 788 786 784 782 781 779 777 775 773 770 769 768 767 766 764 764 762 761 760 759 758 757 756 755 754 752 751 749 748 746 745 743 740 740 740 740 741 741 741 741 742 742 742 742 742 742 742 742 742 742 742 742 742 742 741 741 741
813 810 809 806 804 802 800 799 796 794 792 790 789 787 785 783 781 780 778 776 774 772 770 769 768 767 765 764 764 762 761 760 759 758 757 756 754 754 752 751 749 747 745 743 741 740 741 742 742 743 743 743 743 743 743 743 743 743 743 743 743 743 743 743 743 742 742 742 742
813 811 809 807 805 803 801 799 797 795 793 791 789 788 786 784 782 781 779 778 776 774 772 770 769 768 766 765 764 763 762 761 760 759 758 757 756 755 754 752 750 749 747 746 744 743 743 744 744 744 744 744 744 744 744 744 744 744 744 744 744 744 744 744 744 743 743 743 743
814 812 810 808 806 804 802 800 798 796 794 792 790 788 786 785 783 782 780 779 777 775 773 771 770 769 767 766 765 764 762 761 760 759 758 757 757 756 755 753 752 751 749 748 747 746 745 745 745 745 745 745 745 745 745 745 745 745 745 745 745 745 745 745 744 744 744 744 744
814 812 810 808 806 804 803 801 799 797 795 793 791 789 787 786 784 783 781 779 778 776 774 773 771 769 768 767 765 764 763 762 761 760 759 758 757 757 756 754 753 752 751 750 749 748 748 747 747 747 747 746 746 746 746 746 746 746 746 746 746 746 746 745 745 745 745 745 745
814 812 810 808 807 805 803 801 799 798 796 794 792 790 788 786 784 783 781 780 779 777 775 774 772 770 769 767 766 765 764 763 761 760 760 759 758 757 756 755 754 754 753 752 750 749 749 749 749 748 748 747 747 747 747 746 746 747 747 747 747 746 746 746 746 746 746 746 746